• în Republica Moldova
  • Lista ţărilor
  • Pe 7 zile
  • Temperatura apei
  • Hartă satelitară
  • Meteo pe hartă
  • Widget-uri
  • user-avatar
    Intrare

    Meteo pe oră la Saurimo

    Astăzi, 21 Septembrie, Joi

    Timp Temperatura Precipitaţii Vânt Presiune Umiditate
    00:00 +22°C° 0 mm 0 m/s 670 mmHg 47%
    01:00 +21°C° 0 mm 0 m/s 669 mmHg 49%
    02:00 +21°C° 0 mm 0 m/s 669 mmHg 51%
    03:00 +23°C° 0 mm 1 m/s 669 mmHg 52%
    04:00 +22°C° 0 mm 1 m/s 669 mmHg 54%
    05:00 +24°C° 0 mm 1 m/s 670 mmHg 49%
    06:00 +25°C° 0 mm 1 m/s 671 mmHg 45%
    07:00 +27°C° 0 mm 1 m/s 672 mmHg 40%
    08:00 +32°C° 0 mm 1 m/s 673 mmHg 33%
    09:00 +36°C° 0 mm 1 m/s 674 mmHg 27%
    10:00 +42°C° 0 mm 1 m/s 674 mmHg 20%
    11:00 +40°C° 0 mm 1 m/s 673 mmHg 20%
    12:00 +39°C° 0 mm 1 m/s 672 mmHg 20%
    13:00 +38°C° 0 mm 2 m/s 671 mmHg 19%
    14:00 +38°C° 0 mm 2 m/s 670 mmHg 20%
    15:00 +37°C° 0 mm 2 m/s 670 mmHg 20%
    16:00 +37°C° 0 mm 3 m/s 670 mmHg 21%
    17:00 +35°C° 0 mm 2 m/s 670 mmHg 25%
    18:00 +32°C° 0 mm 2 m/s 670 mmHg 29%
    19:00 +30°C° 0 mm 2 m/s 670 mmHg 32%
    20:00 +28°C° 0 mm 2 m/s 670 mmHg 36%
    21:00 +27°C° 0 mm 1 m/s 670 mmHg 39%
    22:00 +26°C° 0 mm 1 m/s 670 mmHg 42%
    23:00 +26°C° 0 mm 1 m/s 670 mmHg 44%

    Mâine, 22 Septembrie, Vineri

    Timp Temperatura Precipitaţii Vânt Presiune Umiditate
    00:00 +25°C° 0 mm 1 m/s 669 mmHg 46%
    01:00 +23°C° 0 mm 0 m/s 669 mmHg 47%
    02:00 +23°C° 0 mm 0 m/s 669 mmHg 47%
    03:00 +23°C° 0 mm 0 m/s 669 mmHg 47%
    04:00 +25°C° 0 mm 1 m/s 669 mmHg 47%
    05:00 +26°C° 0 mm 1 m/s 670 mmHg 46%
    06:00 +27°C° 0 mm 1 m/s 671 mmHg 44%
    07:00 +27°C° 0 mm 1 m/s 671 mmHg 43%
    08:00 +31°C° 0 mm 1 m/s 672 mmHg 36%
    09:00 +35°C° 0 mm 1 m/s 673 mmHg 28%
    10:00 +40°C° 0 mm 1 m/s 674 mmHg 21%
    11:00 +39°C° 0 mm 1 m/s 673 mmHg 22%
    12:00 +36°C° 0 mm 1 m/s 672 mmHg 23%
    13:00 +35°C° 0 mm 1 m/s 670 mmHg 24%
    14:00 +35°C° 0 mm 1 m/s 670 mmHg 24%
    15:00 +34°C° 0 mm 1 m/s 670 mmHg 24%
    16:00 +34°C° 0 mm 1 m/s 669 mmHg 25%
    17:00 +32°C° 0 mm 1 m/s 669 mmHg 29%
    18:00 +30°C° 0 mm 1 m/s 669 mmHg 33%
    19:00 +27°C° 0 mm 1 m/s 669 mmHg 37%
    20:00 +26°C° 0 mm 1 m/s 669 mmHg 39%
    21:00 +26°C° 0 mm 1 m/s 669 mmHg 42%
    22:00 +25°C° 0 mm 1 m/s 669 mmHg 45%
    23:00 +25°C° 0 mm 1 m/s 669 mmHg 45%

    Poimâine, 23 Septembrie, Sâmbătă

    Timp Temperatura Precipitaţii Vânt Presiune Umiditate
    00:00 +25°C° 0 mm 1 m/s 669 mmHg 46%
    01:00 +24°C° 0 mm 1 m/s 668 mmHg 47%
    02:00 +24°C° 0 mm 1 m/s 668 mmHg 47%
    03:00 +24°C° 0 mm 1 m/s 668 mmHg 47%
    04:00 +24°C° 0 mm 1 m/s 668 mmHg 48%
    05:00 +25°C° 0 mm 1 m/s 669 mmHg 48%
    06:00 +25°C° 0 mm 1 m/s 670 mmHg 48%
    07:00 +26°C° 0 mm 1 m/s 671 mmHg 48%
    08:00 +31°C° 0 mm 1 m/s 672 mmHg 39%
    09:00 +35°C° 0 mm 1 m/s 673 mmHg 30%
    10:00 +41°C° 0 mm 1 m/s 674 mmHg 22%
    11:00 +40°C° 0 mm 1 m/s 673 mmHg 21%
    12:00 +40°C° 0 mm 1 m/s 671 mmHg 20%
    13:00 +39°C° 0 mm 2 m/s 670 mmHg 19%
    14:00 +38°C° 0 mm 2 m/s 670 mmHg 19%
    15:00 +38°C° 0 mm 2 m/s 670 mmHg 20%
    16:00 +37°C° 0 mm 2 m/s 669 mmHg 21%
    17:00 +35°C° 0 mm 2 m/s 669 mmHg 27%
    18:00 +31°C° 0 mm 2 m/s 669 mmHg 33%
    19:00 +29°C° 0 mm 2 m/s 669 mmHg 40%
    20:00 +27°C° 0 mm 2 m/s 669 mmHg 45%
    21:00 +26°C° 0 mm 2 m/s 669 mmHg 51%
    22:00 +25°C° 0 mm 1 m/s 669 mmHg 56%
    23:00 +24°C° 0 mm 1 m/s 669 mmHg 59%

    24 Septembrie, Duminică

    Timp Temperatura Precipitaţii Vânt Presiune Umiditate
    00:00 +23°C° 0 mm 1 m/s 669 mmHg 62%
    01:00 +23°C° 0 mm 1 m/s 668 mmHg 64%
    02:00 +22°C° 0 mm 1 m/s 669 mmHg 66%
    03:00 +22°C° 0 mm 1 m/s 669 mmHg 68%
    04:00 +22°C° 0 mm 1 m/s 669 mmHg 70%
    05:00 +23°C° 0 mm 1 m/s 670 mmHg 68%
    06:00 +24°C° 0 mm 2 m/s 671 mmHg 65%
    07:00 +26°C° 0 mm 2 m/s 672 mmHg 62%
    08:00 +29°C° 0 mm 2 m/s 672 mmHg 53%
    09:00 +32°C° 0 mm 2 m/s 673 mmHg 44%
    10:00 +36°C° 0 mm 2 m/s 673 mmHg 34%
    11:00 +36°C° 0 mm 2 m/s 672 mmHg 32%
    12:00 +36°C° 0 mm 2 m/s 672 mmHg 30%
    13:00 +35°C° 0 mm 1 m/s 671 mmHg 28%
    14:00 +35°C° 0 mm 1 m/s 670 mmHg 29%
    15:00 +34°C° 0 mm 1 m/s 670 mmHg 30%
    16:00 +33°C° 0 mm 1 m/s 670 mmHg 31%
    17:00 +32°C° 0 mm 1 m/s 670 mmHg 35%
    18:00 +30°C° 0 mm 1 m/s 670 mmHg 39%
    19:00 +29°C° 0 mm 1 m/s 670 mmHg 43%
    20:00 +27°C° 0 mm 1 m/s 670 mmHg 47%
    21:00 +26°C° 0 mm 1 m/s 670 mmHg 51%
    22:00 +25°C° 0 mm 1 m/s 669 mmHg 55%
    23:00 +24°C° 0 mm 1 m/s 669 mmHg 58%

    25 Septembrie, Luni

    Timp Temperatura Precipitaţii Vânt Presiune Umiditate
    00:00 +24°C° 0 mm 1 m/s 669 mmHg 61%
    01:00 +23°C° 0 mm 1 m/s 668 mmHg 64%
    02:00 +22°C° 0 mm 1 m/s 668 mmHg 67%
    03:00 +22°C° 0 mm 1 m/s 668 mmHg 70%
    04:00 +21°C° 0 mm 1 m/s 669 mmHg 73%
    05:00 +23°C° 0,3 mm 1 m/s 669 mmHg 69%
    06:00 +24°C° 0,3 mm 1 m/s 670 mmHg 66%
    07:00 +25°C° 0,3 mm 1 m/s 671 mmHg 62%
    08:00 +29°C° 0 mm 1 m/s 671 mmHg 51%
    09:00 +33°C° 0 mm 1 m/s 672 mmHg 41%
    10:00 +36°C° 0 mm 1 m/s 672 mmHg 30%
    11:00 +36°C° 0 mm 1 m/s 671 mmHg 28%
    12:00 +36°C° 0 mm 1 m/s 670 mmHg 27%
    13:00 +36°C° 0 mm 1 m/s 669 mmHg 25%
    14:00 +36°C° 0 mm 1 m/s 669 mmHg 25%
    15:00 +35°C° 0 mm 1 m/s 669 mmHg 26%
    16:00 +35°C° 0 mm 1 m/s 668 mmHg 26%
    17:00 +33°C° 0 mm 1 m/s 669 mmHg 30%
    18:00 +31°C° 0 mm 1 m/s 669 mmHg 34%
    19:00 +29°C° 0 mm 2 m/s 669 mmHg 38%
    20:00 +28°C° 0 mm 2 m/s 669 mmHg 45%
    21:00 +27°C° 0 mm 2 m/s 668 mmHg 51%
    22:00 +25°C° 0 mm 2 m/s 668 mmHg 58%
    23:00 +24°C° 0 mm 2 m/s 668 mmHg 63%

    26 Septembrie, Marţi

    Timp Temperatura Precipitaţii Vânt Presiune Umiditate
    00:00 +24°C° 0 mm 2 m/s 668 mmHg 68%
    01:00 +23°C° 0 mm 2 m/s 668 mmHg 74%
    02:00 +21°C° 0,1 mm 2 m/s 668 mmHg 77%
    03:00 +21°C° 0,1 mm 2 m/s 668 mmHg 80%
    04:00 +20°C° 0,1 mm 2 m/s 668 mmHg 83%
    05:00 +23°C° 0 mm 2 m/s 668 mmHg 76%
    06:00 +24°C° 0 mm 2 m/s 669 mmHg 69%
    07:00 +25°C° 0 mm 2 m/s 670 mmHg 62%
    08:00 +28°C° 0 mm 2 m/s 670 mmHg 53%
    09:00 +31°C° 0 mm 3 m/s 671 mmHg 43%
    10:00 +35°C° 0 mm 3 m/s 671 mmHg 33%
    11:00 +36°C° 0 mm 2 m/s 670 mmHg 30%
    12:00 +37°C° 0 mm 2 m/s 670 mmHg 27%
    13:00 +38°C° 0 mm 2 m/s 669 mmHg 24%
    14:00 +37°C° 0 mm 2 m/s 669 mmHg 25%
    15:00 +36°C° 0 mm 2 m/s 668 mmHg 26%
    16:00 +35°C° 0 mm 2 m/s 668 mmHg 28%
    17:00 +32°C° 0,1 mm 2 m/s 668 mmHg 33%
    18:00 +30°C° 0,1 mm 2 m/s 668 mmHg 39%
    19:00 +28°C° 0,1 mm 2 m/s 668 mmHg 44%
    20:00 +27°C° 0 mm 2 m/s 668 mmHg 49%
    21:00 +26°C° 0 mm 1 m/s 669 mmHg 54%
    22:00 +24°C° 0 mm 1 m/s 669 mmHg 59%
    23:00 +24°C° 0,1 mm 1 m/s 669 mmHg 61%
    Arată mai mult